When you browse on this site, cookies collect data to enhance your experience and personalize the content and advertising you see.
Visit our Privacy Policy to learn more. By continuing to use the site, you agree to this use of cookies and data.
  • în România
  • Lista ţărilor
  • Pe 7 zile
  • Temperatura apei
  • Meteo pe hartă
  • Widget-uri
  • user-avatar
    Intrare

    Meteo pe oră la Porto Velho

    Astăzi, 11 Noiembrie, Luni

    Timp Temperatura Precipitaţii Vânt Presiune Umiditate
    00:00 +24°C° 0 mm 0 m/s 749 mmHg 84%
    01:00 +23°C° 0 mm 0 m/s 749 mmHg 85%
    02:00 +23°C° 0 mm 0 m/s 749 mmHg 86%
    03:00 +23°C° 0 mm 0 m/s 749 mmHg 87%
    04:00 +22°C° 0 mm 0 m/s 749 mmHg 88%
    05:00 +22°C° 0 mm 0 m/s 748 mmHg 89%
    06:00 +24°C° 0 mm 0 m/s 749 mmHg 81%
    07:00 +26°C° 0 mm 0 m/s 750 mmHg 72%
    08:00 +30°C° 0 mm 1 m/s 751 mmHg 67%
    09:00 +32°C° 0 mm 1 m/s 751 mmHg 58%
    10:00 +35°C° 0 mm 1 m/s 751 mmHg 49%
    11:00 +36°C° 0 mm 0 m/s 750 mmHg 40%
    12:00 +37°C° 0.1 mm 1 m/s 750 mmHg 43%
    13:00 +36°C° 0.1 mm 1 m/s 749 mmHg 47%
    14:00 +35°C° 0.1 mm 1 m/s 748 mmHg 50%
    15:00 +34°C° 0.1 mm 1 m/s 747 mmHg 55%
    16:00 +33°C° 0.1 mm 1 m/s 747 mmHg 59%
    17:00 +32°C° 0.1 mm 1 m/s 747 mmHg 63%
    18:00 +31°C° 0.2 mm 1 m/s 747 mmHg 71%
    19:00 +29°C° 0.2 mm 1 m/s 748 mmHg 79%
    20:00 +27°C° 0.2 mm 1 m/s 749 mmHg 87%
    21:00 +27°C° 0.1 mm 1 m/s 749 mmHg 88%
    22:00 +24°C° 0.1 mm 0 m/s 749 mmHg 89%
    23:00 +24°C° 0.1 mm 0 m/s 750 mmHg 91%

    Mâine, 12 Noiembrie, Marţi

    Timp Temperatura Precipitaţii Vânt Presiune Umiditate
    00:00 +23°C° 0.1 mm 0 m/s 749 mmHg 92%
    01:00 +23°C° 0.1 mm 0 m/s 749 mmHg 93%
    02:00 +23°C° 0.1 mm 0 m/s 748 mmHg 95%
    03:00 +23°C° 0 mm 0 m/s 748 mmHg 95%
    04:00 +23°C° 0 mm 0 m/s 748 mmHg 95%
    05:00 +23°C° 0 mm 0 m/s 748 mmHg 96%
    06:00 +24°C° 0.3 mm 0 m/s 749 mmHg 92%
    07:00 +25°C° 0.3 mm 0 m/s 750 mmHg 88%
    08:00 +26°C° 0.3 mm 0 m/s 750 mmHg 85%
    09:00 +28°C° 0 mm 0 m/s 750 mmHg 76%
    10:00 +30°C° 0 mm 0 m/s 750 mmHg 68%
    11:00 +34°C° 0 mm 1 m/s 750 mmHg 59%
    12:00 +35°C° 0.4 mm 1 m/s 749 mmHg 54%
    13:00 +36°C° 0.4 mm 1 m/s 748 mmHg 49%
    14:00 +37°C° 0.4 mm 1 m/s 746 mmHg 44%
    15:00 +36°C° 0.4 mm 1 m/s 746 mmHg 51%
    16:00 +34°C° 0.4 mm 1 m/s 746 mmHg 59%
    17:00 +32°C° 0.4 mm 1 m/s 745 mmHg 66%
    18:00 +30°C° 1.2 mm 1 m/s 746 mmHg 74%
    19:00 +29°C° 1.2 mm 1 m/s 746 mmHg 81%
    20:00 +27°C° 1.2 mm 1 m/s 746 mmHg 89%
    21:00 +25°C° 0.1 mm 0 m/s 747 mmHg 89%
    22:00 +25°C° 0.1 mm 0 m/s 747 mmHg 90%
    23:00 +24°C° 0.1 mm 0 m/s 747 mmHg 90%

    Poimâine, 13 Noiembrie, Miercuri

    Timp Temperatura Precipitaţii Vânt Presiune Umiditate
    00:00 +24°C° 0 mm 0 m/s 747 mmHg 90%
    01:00 +24°C° 0 mm 0 m/s 747 mmHg 91%
    02:00 +24°C° 0 mm 0 m/s 747 mmHg 91%
    03:00 +24°C° 0.2 mm 0 m/s 747 mmHg 92%
    04:00 +23°C° 0.2 mm 0 m/s 747 mmHg 93%
    05:00 +23°C° 0.2 mm 0 m/s 747 mmHg 94%
    06:00 +25°C° 0.1 mm 0 m/s 748 mmHg 89%
    07:00 +26°C° 0.1 mm 0 m/s 749 mmHg 83%
    08:00 +29°C° 0.1 mm 1 m/s 749 mmHg 78%
    09:00 +32°C° 0.1 mm 1 m/s 749 mmHg 68%
    10:00 +34°C° 0.1 mm 1 m/s 749 mmHg 58%
    11:00 +37°C° 0.1 mm 1 m/s 749 mmHg 48%
    12:00 +37°C° 0.1 mm 1 m/s 748 mmHg 48%
    13:00 +37°C° 0.1 mm 1 m/s 747 mmHg 47%
    14:00 +37°C° 0.1 mm 1 m/s 746 mmHg 46%
    15:00 +36°C° 0 mm 1 m/s 746 mmHg 47%
    16:00 +34°C° 0 mm 0 m/s 745 mmHg 49%
    17:00 +33°C° 0 mm 0 m/s 744 mmHg 50%
    18:00 +32°C° 0 mm 0 m/s 745 mmHg 56%
    19:00 +30°C° 0 mm 0 m/s 745 mmHg 62%
    20:00 +28°C° 0 mm 0 m/s 745 mmHg 67%
    21:00 +27°C° 0 mm 0 m/s 746 mmHg 70%
    22:00 +27°C° 0 mm 0 m/s 746 mmHg 72%
    23:00 +26°C° 0 mm 0 m/s 747 mmHg 75%

    14 Noiembrie, Joi

    Timp Temperatura Precipitaţii Vânt Presiune Umiditate
    00:00 +26°C° 0.1 mm 0 m/s 747 mmHg 78%
    01:00 +25°C° 0.1 mm 0 m/s 747 mmHg 81%
    02:00 +25°C° 0.1 mm 0 m/s 746 mmHg 85%
    03:00 +24°C° 0.7 mm 0 m/s 747 mmHg 88%
    04:00 +24°C° 0.7 mm 0 m/s 747 mmHg 90%
    05:00 +23°C° 0.7 mm 0 m/s 747 mmHg 93%
    06:00 +26°C° 0.5 mm 1 m/s 748 mmHg 91%
    07:00 +27°C° 0.5 mm 1 m/s 749 mmHg 89%
    08:00 +28°C° 0.5 mm 1 m/s 750 mmHg 86%
    09:00 +30°C° 1.2 mm 1 m/s 750 mmHg 79%
    10:00 +32°C° 1.2 mm 1 m/s 749 mmHg 72%
    11:00 +34°C° 1.2 mm 1 m/s 749 mmHg 65%
    12:00 +32°C° 1.8 mm 2 m/s 749 mmHg 71%
    13:00 +31°C° 1.8 mm 2 m/s 748 mmHg 76%
    14:00 +30°C° 1.8 mm 2 m/s 747 mmHg 81%
    15:00 +29°C° 1.4 mm 2 m/s 747 mmHg 85%
    16:00 +28°C° 1.4 mm 2 m/s 746 mmHg 88%
    17:00 +27°C° 1.4 mm 1 m/s 746 mmHg 92%
    18:00 +26°C° 0.1 mm 1 m/s 746 mmHg 93%
    19:00 +26°C° 0.1 mm 1 m/s 746 mmHg 93%
    20:00 +24°C° 0.1 mm 0 m/s 747 mmHg 94%
    21:00 +24°C° 0.1 mm 0 m/s 747 mmHg 94%
    22:00 +23°C° 0.1 mm 0 m/s 748 mmHg 95%
    23:00 +23°C° 0.1 mm 0 m/s 749 mmHg 95%

    15 Noiembrie, Vineri

    Timp Temperatura Precipitaţii Vânt Presiune Umiditate
    00:00 +23°C° 0 mm 0 m/s 748 mmHg 95%
    01:00 +23°C° 0 mm 0 m/s 748 mmHg 95%
    02:00 +23°C° 0 mm 0 m/s 747 mmHg 95%
    03:00 +23°C° 0.8 mm 0 m/s 748 mmHg 96%
    04:00 +23°C° 0.8 mm 0 m/s 748 mmHg 97%
    05:00 +23°C° 0.8 mm 0 m/s 748 mmHg 97%
    06:00 +23°C° 1.3 mm 0 m/s 749 mmHg 97%
    07:00 +23°C° 1.3 mm 0 m/s 749 mmHg 97%
    08:00 +24°C° 1.3 mm 0 m/s 750 mmHg 96%
    09:00 +24°C° 1 mm 0 m/s 750 mmHg 96%
    10:00 +26°C° 1 mm 1 m/s 750 mmHg 96%
    11:00 +26°C° 1 mm 1 m/s 750 mmHg 96%
    12:00 +27°C° 0.8 mm 1 m/s 749 mmHg 92%
    13:00 +27°C° 0.8 mm 1 m/s 748 mmHg 89%
    14:00 +28°C° 0.8 mm 1 m/s 748 mmHg 85%
    15:00 +27°C° 0.7 mm 1 m/s 747 mmHg 88%
    16:00 +25°C° 0.7 mm 0 m/s 747 mmHg 90%
    17:00 +25°C° 0.7 mm 0 m/s 747 mmHg 92%
    18:00 +24°C° 0.2 mm 0 m/s 747 mmHg 94%
    19:00 +24°C° 0.2 mm 0 m/s 748 mmHg 96%
    20:00 +23°C° 0.2 mm 0 m/s 749 mmHg 97%
    21:00 +25°C° 0 mm 1 m/s 749 mmHg 98%
    22:00 +25°C° 0 mm 1 m/s 749 mmHg 98%
    23:00 +25°C° 0 mm 1 m/s 749 mmHg 98%

    16 Noiembrie, Sâmbătă

    Timp Temperatura Precipitaţii Vânt Presiune Umiditate
    00:00 +25°C° 0 mm 1 m/s 748 mmHg 98%
    01:00 +25°C° 0 mm 1 m/s 748 mmHg 98%
    02:00 +25°C° 0 mm 1 m/s 747 mmHg 98%
    03:00 +24°C° 0 mm 1 m/s 747 mmHg 98%
    04:00 +22°C° 0 mm 0 m/s 747 mmHg 98%
    05:00 +22°C° 0 mm 0 m/s 747 mmHg 98%
    06:00 +23°C° 0 mm 0 m/s 748 mmHg 96%
    07:00 +24°C° 0 mm 0 m/s 748 mmHg 93%
    08:00 +24°C° 0 mm 0 m/s 749 mmHg 91%
    09:00 +26°C° 0.1 mm 0 m/s 749 mmHg 85%
    10:00 +27°C° 0.1 mm 0 m/s 749 mmHg 79%
    11:00 +28°C° 0.1 mm 0 m/s 749 mmHg 73%
    12:00 +29°C° 1 mm 1 m/s 749 mmHg 80%
    13:00 +28°C° 1 mm 1 m/s 748 mmHg 87%
    14:00 +27°C° 1 mm 2 m/s 747 mmHg 94%
    15:00 +26°C° 0.6 mm 1 m/s 746 mmHg 95%
    16:00 +26°C° 0.6 mm 1 m/s 746 mmHg 96%
    17:00 +23°C° 0.6 mm 0 m/s 745 mmHg 96%
    18:00 +23°C° 0 mm 0 m/s 746 mmHg 97%
    19:00 +23°C° 0 mm 0 m/s 746 mmHg 97%
    20:00 +23°C° 0 mm 0 m/s 747 mmHg 97%
    21:00 +22°C° 0 mm 0 m/s 747 mmHg 97%
    22:00 +22°C° 0 mm 0 m/s 747 mmHg 98%
    23:00 +22°C° 0 mm 0 m/s 748 mmHg 98%
    Arată mai mult